Ketchikan, AK

10:05 PM AKDT on September 22, 2018 (GMT -0800)
Ketchikan International

Weather History for PAKT - October, 2017

Change the Weather History Date:

Thursday, October 19, 2017

  Actual Average Record
Temperature  
Mean Temperature 44 °F -  
Max Temperature 46 °F 50 °F 62 °F (1953)
Min Temperature 41 °F 40 °F 28 °F (2004)
Degree Days  
Heating Degree Days 22    
Moisture  
Dew Point 42 °F    
Average Humidity 92    
Maximum Humidity 97    
Minimum Humidity 77    
Precipitation  
Precipitation 0.88 in - - ()
Sea Level Pressure  
Sea Level Pressure 29.05 in    
Wind  
Wind Speed 5 mph (SSE)    
Max Wind Speed 14 mph    
Max Gust Speed -    
Visibility 8 miles    
Events Rain    
Averages and records for this station are not official NWS values.
T = Trace of Precipitation, MM = Missing Value Source: NWS Daily Summary

Daily Weather History Graph

Daily Weather History Graph

Search for Another Location

Airport or City:

Astronomy

Oct. 19, 2017 Rise Set
Actual Time 7:25 AM AKDT 5:36 PM AKDT
Civil Twilight 6:48 AM AKDT 6:13 PM AKDT
Nautical Twilight 6:06 AM AKDT 6:56 PM AKDT
Astronomical Twilight 5:23 AM AKDT 7:38 PM AKDT
Moon 7:01 AM AKDT (10/19) 6:08 PM AKDT (10/19)
Length of Visible Light 11h 25m
Length of Day
10h 10m
New Moon, 0% of the Moon is Illuminated
Oct 19
New Moon
Oct 27
First Quarter
Nov 3
Full
Nov 10
Last Quarter
Nov 18
New

Hourly Weather History & Observations

Time (AKDT) Temp. Windchill Dew Point Humidity Pressure Visibility Wind Dir Wind Speed Gust Speed Precip Events Conditions
12:53 AM 46.0 °F 39.9 °F 42.1 °F 86% 28.85 in 10.0 mi SSE 13.8 mph - 0.00 in   Overcast
1:53 AM 46.9 °F - 39.9 °F 77% 28.85 in 10.0 mi South 6.9 mph - N/A   Overcast
2:53 AM 46.0 °F 42.5 °F 39.9 °F 79% 28.84 in 10.0 mi South 6.9 mph - 0.00 in Rain Light Rain
3:53 AM 45.0 °F 42.6 °F 41.0 °F 86% 28.85 in 5.0 mi South 4.6 mph - 0.05 in Rain Rain
4:17 AM 44.1 °F 42.5 °F 41.0 °F 89% 28.86 in 4.0 mi SE 3.5 mph - 0.07 in Rain Rain
4:53 AM 44.1 °F - 41.0 °F 89% 28.88 in 4.0 mi Calm Calm - 0.21 in Rain Rain
5:53 AM 43.0 °F 41.3 °F 39.9 °F 89% 28.90 in 7.0 mi South 3.5 mph - 0.16 in Rain Light Rain
6:06 AM 42.8 °F 38.6 °F 39.2 °F 87% 28.90 in 7.0 mi SE 6.9 mph - N/A Rain Light Rain
6:53 AM 42.8 °F 38.0 °F 39.2 °F 87% 28.92 in 10.0 mi South 8.1 mph - N/A Rain Light Rain
7:53 AM 41.0 °F - 39.9 °F 96% 28.93 in 10.0 mi Calm Calm - 0.05 in Rain Light Rain
8:53 AM 42.8 °F 41.1 °F 41.0 °F 93% 28.94 in 8.0 mi WNW 3.5 mph - N/A   Overcast
9:53 AM 43.0 °F - 39.9 °F 89% 28.97 in 10.0 mi Calm Calm - N/A   Overcast
10:08 AM 44.1 °F - 39.9 °F 85% 28.97 in 10.0 mi Calm Calm - N/A   Overcast
10:17 AM 44.1 °F - 41.0 °F 89% 28.97 in 10.0 mi Calm Calm - N/A   Overcast
10:53 AM 44.1 °F 42.5 °F 42.1 °F 93% 28.99 in 10.0 mi ESE 3.5 mph - N/A   Overcast
11:53 AM 45.0 °F 41.2 °F 42.1 °F 90% 29.01 in 10.0 mi SE 6.9 mph - N/A   Overcast
12:53 PM 44.1 °F 41.5 °F 43.0 °F 96% 29.03 in 5.0 mi South 4.6 mph - 0.02 in Rain Light Rain
1:53 PM 44.1 °F - 43.0 °F 96% 29.03 in 3.0 mi Calm Calm - 0.09 in Rain Rain
2:53 PM 45.0 °F - 43.0 °F 93% 29.04 in 7.0 mi Calm Calm - 0.06 in Rain Light Rain
3:53 PM 44.1 °F 40.8 °F 42.1 °F 93% 29.05 in 3.0 mi WNW 5.8 mph - 0.15 in Rain Heavy Rain
4:53 PM 44.1 °F 40.8 °F 42.1 °F 93% 29.09 in 8.0 mi WNW 5.8 mph - 0.05 in   Overcast
5:00 PM 44.1 °F 41.5 °F 42.1 °F 93% 29.09 in 10.0 mi WNW 4.6 mph - N/A   Overcast
5:53 PM 43.0 °F - 41.0 °F 93% 29.12 in 10.0 mi Calm Calm - N/A   Overcast
6:53 PM 42.8 °F - 41.0 °F 93% 29.15 in 10.0 mi Calm Calm - N/A   Overcast
7:53 PM 43.0 °F - 42.1 °F 97% 29.18 in 8.0 mi Calm Calm - 0.01 in Rain Light Rain
8:53 PM 43.0 °F 40.3 °F 42.1 °F 97% 29.22 in 10.0 mi SSE 4.6 mph - 0.00 in   Overcast
9:53 PM 44.1 °F 42.5 °F 43.0 °F 96% 29.24 in 10.0 mi South 3.5 mph - N/A   Overcast
10:00 PM 44.1 °F 41.5 °F 43.0 °F 96% 29.24 in 10.0 mi SSE 4.6 mph - N/A   Overcast
10:09 PM 44.1 °F 42.5 °F 43.0 °F 96% 29.25 in 10.0 mi SSE 3.5 mph - N/A   Overcast
10:27 PM 44.1 °F 42.5 °F 43.0 °F 96% 29.25 in 10.0 mi SSE 3.5 mph - N/A   Overcast
10:53 PM 44.1 °F 42.5 °F 43.0 °F 96% 29.27 in 10.0 mi South 3.5 mph - N/A   Overcast
11:09 PM 44.1 °F 42.5 °F 43.0 °F 96% 29.27 in 5.0 mi SSE 3.5 mph - 0.02 in Rain Rain
11:17 PM 44.1 °F - 43.0 °F 96% 29.27 in 8.0 mi Calm Calm - 0.02 in Rain Light Rain
11:53 PM 44.1 °F 42.5 °F 43.0 °F 96% 29.29 in 10.0 mi SSE 3.5 mph - 0.03 in   Overcast